SCP
0 0 0 -0 -0 0 0 0 0 0 0 0 0 0 0 0 0 0 0 0 0 0 0 0 0 0 0 0 0 0 0 0 0 0 0 0 0 0 0 0 0 0 0 0
0 0 0 0 0 0 0 0 0 0 0 0 0 0 0 0 0 0 0 0 0 0 0 0 0 0 0 0 0 0 0 0 0 0 0 0 0 0 0 0 0 0 0 0
0 0 0 0 0 0 0 0 0 0 0 0 0 0 0 0 0 0 0 0 0 0 0 0 0 0 0 0 0 0 0 0 0 0 0 0 0 0 0 0 0 0 0 0
0 -0 0 0 0 0 -0 0 0 0 0 0 -0 -0 -0 -0 -0 0 0 0 0 0 0 0 0 0 0 0 0 0 0 0 0 0 0 0 0 0 0 0 0 0 0 0
0 0 0 0 0 -0 -0 0 0 0 -0 -0 -0 -0 -0 -0 0 0 0 0 0 0 0 0 0 -0 -0 0 0 0 0 0 0 0 0 0 0 0 0 0 0 0 0 0
0 0 0 0 0 0 -0 0 0 -0 -0 -0 -0 -0 -0 0 0 0 0 0 0 0 0 0 0 0 0 0 0 0 0 0 0 0 0 0 0 0 0 0 0 0 0 0
0 0 0 0 -0 -0 0 0 0 0 0 0 -0 0 -0 0 0 0 0 0 0 0 0 0 0 0 0 0 0 0 0 0 0 0 0 0 0 0 0 0 0 0 0 0
0 0 0 0 0 0 0 0 0 0 0 -0 -0 -0 -0 -0 -0 -0 0 0 0 0 0 0 0 0 0 0 0 0 0 0 0 0 0 0 0 0 0 0 0 0 0 0
0 0 0 0 0 0 0 -0 -0 -0 -0 -0 -0 -0 0 -0 -0 -0 -0 -0 0 0 -0 0 0 0 0 0 0 0 0 0 0 0 0 0 0 0 0 0 0 0 0 0
0 0 0 0 0 0 -0 -0 -0 0 0 0 0 0 0 0 0 0 -0 0 0 0 0 -0 0 0 -0 0 0 0 0 0 0 0 0 0 0 0 0 0 0 0 0 0
0 0 -0 0 0 -0 0 0 0 0 0 0 0 0 0 0 0 -0 0 0 0 0 0 0 0 -0 0 -0 0 0 0 0 0 0 0 0 0 0 0 0 0 0 -0 0
0 0 0 0 0 0 0 0 0 0 0 0 0 0 0 -0 0 0 -0 -0 0 0 -0 -0 -0 -0 -0 -0 -0 -0 0 0 0 0 0 0 0 0 0 0 0 0 0 0
0 0 0 0 0 0 0 0 0 0 0 0 0 0 0 0 0 0 0 0 0 0 0 -0 -0 -0 -0 -0 -0 -0 -0 0 0 0 0 0 0 0 0 0 -0 0 0 0
0 -0 0 0 0 0 -0 0 0 0 0 0 0 0 0 0 0 0 0 0 0 0 0 0 0 -0 -0 0 0 -0 -0 -0 -0 -0 0 0 -0 0 0 0 0 0 0 0
-0 -0 0 0 0 0 0 0 0 0 -0 -0 -0 -0 -0 0 0 0 0 0 0 0 0 0 0 0 0 0 0 0 -0 -0 0 -0 0 0 0 0 0 0 0 0 0 -0
-0 -0 0 0 0 0 0 0 0 -0 0 -0 -0 -0 -0 0 0 0 0 0 0 0 0 0 0 0 0 0 0 0 0 -0 0 0 0 0 0 0 0 0 0 0 0 0
0 -0 0 0 0 -0 0 0 0 0 -0 -0 0 -0 -0 -0 0 0 0 0 0 0 0 0 0 0 0 0 0 0 0 0 0 0 0 0 0 0 0 0 0 0 0 0
-0 -0 0 -0 -0 -0 0 0 -0 0 0 -0 -0 0 -0 -0 -0 -0 0 0 -0 -0 -0 0 0 0 0 0 0 0 0 0 0 0 0 0 0 0 0 0 0 -0 0 0
-0 0 0 0 0 0 0 0 -0 -0 0 -0 0 0 0 -0 -0 -0 0 0 -0 0 0 0 0 0 0 0 0 0 0 0 0 0 0 0 0 0 0 0 0 0 0 0
-0 0 -0 0 -0 -0 0 0 0 -0 -0 -0 -0 0 0 -0 -0 -0 -0 0 0 0 0 0 0 0 0 0 0 0 0 0 0 0 0 0 0 0 0 0 0 0 0 0
-0 -0 0 -0 -0 0 -0 0 0 -0 -0 -0 -0 -0 -0 0 0 -0 -0 0 -0 -0 0 0 0 0 0 0 0 0 0 0 0 0 0 0 0 0 0 0 0 0 0 0
-0 -0 0 -0 -0 -0 -0 0 0 -0 0 -0 -0 -0 -0 -0 -0 -0 0 -0 0 -0 0 0 0 0 0 0 0 0 0 0 0 0 0 0 0 0 0 0 0 0 0 0
-0 -0 -0 0 0 0 -0 -0 -0 -0 0 0 -0 -0 -0 0 0 -0 -0 -0 -0 -0 0 0 -0 -0 -0 0 0 0 0 0 0 0 0 0 0 0 0 0 0 0 0 0
-0 -0 0 0 0 -0 -0 -0 -0 -0 -0 0 0 0 -0 -0 0 0 0 -0 -0 -0 -0 -0 -0 -0 -0 -0 0 0 0 0 0 0 0 0 0 0 0 0 0 0 0 0
0 0 0 0 -0 0 -0 -0 0 0 -0 -0 0 0 0 0 -0 -0 -0 -0 -0 -0 -0 -0 -0 -0 -0 -0 -0 0 0 0 0 0 0 0 0 0 0 0 0 0 0 0
0 0 0 0 -0 -0 -0 -0 -0 0 0 0 0 0 0 -0 0 0 -0 -0 -0 -0 -0 -0 -0 -0 -0 -0 -0 -0 0 0 0 0 0 0 0 0 0 0 0 0 0 0
-0 -0 0 0 0 -0 -0 -0 0 -0 0 0 0 0 0 -0 -0 0 -0 -0 -0 -0 -0 -0 -0 -0 -0 -0 -0 -0 0 0 0 0 0 0 0 0 0 0 0 0 0 0
Wind_Speed_500mb
12 19 24 26 25 23 19 21 8 7 7 4 6 12 19 30 20 14 15 21 32 35 41 31 28 31 29 49 40 33 43 49 52 56 60 64 69 69 69 70 70 69 65 67
8 25 16 25 17 17 3 5 7 9 9 3 16 21 20 33 28 34 31 34 29 36 31 37 45 55 60 66 62 61 64 63 63 63 63 66 67 65 69 75 77 90 98 100
9 15 24 5 17 10 10 3 5 4 3 9 14 15 24 35 45 47 42 26 31 34 41 47 53 51 51 58 65 67 70 69 70 70 72 75 70 72 79 81 85 72 77 74
8 12 2 10 0 9 23 9 12 13 17 16 20 37 48 51 48 39 38 52 59 63 70 80 84 80 72 65 65 64 66 71 67 61 62 66 74 83 86 83 79 73 58 66
2 2 11 18 6 11 11 9 10 14 22 34 46 56 51 37 34 54 76 89 84 86 89 96 106 107 97 86 84 83 84 84 80 77 76 74 76 80 88 82 76 76 66 63
3 4 7 5 16 28 15 9 16 24 26 26 44 31 29 52 69 83 77 73 85 96 94 94 101 98 99 105 99 110 96 87 84 82 83 85 84 82 86 81 86 77 71 60
5 6 12 9 20 23 9 12 42 39 41 48 32 38 91 84 77 73 90 106 104 103 103 103 95 84 88 91 90 87 87 91 93 94 90 85 87 84 79 68 71 76 76 66
3 6 12 17 10 3 7 34 42 48 60 63 69 83 79 80 89 110 103 97 96 97 102 99 91 82 86 90 90 85 82 84 89 84 82 81 77 80 79 71 77 68 74 72
10 9 6 14 17 6 36 38 46 60 68 71 81 86 74 99 119 116 111 107 100 97 96 95 88 84 85 91 81 72 72 79 87 89 87 74 75 69 72 68 62 73 78 75
9 2 15 50 20 42 58 55 67 69 77 85 75 76 106 120 116 105 110 105 99 101 98 92 86 86 89 84 73 69 69 72 73 69 68 67 61 59 54 62 67 57 58 65
9 9 42 1 51 57 75 76 72 80 76 65 75 94 114 109 113 111 107 106 98 93 97 98 88 81 82 79 69 69 65 67 65 61 60 61 60 59 66 66 64 65 69 66
8 11 11 41 59 67 67 75 78 81 75 72 90 106 111 113 113 104 105 108 104 95 95 100 86 73 69 68 67 67 62 60 63 61 58 60 60 58 57 55 55 53 48 53
14 39 41 57 51 52 67 81 86 79 66 80 106 104 107 98 102 100 99 96 99 101 90 77 69 55 45 55 60 61 64 60 56 53 57 61 60 60 59 53 51 55 56 59
13 39 29 31 54 67 67 73 75 77 63 92 106 100 96 95 98 94 91 89 84 72 60 20 18 27 32 47 53 55 55 54 54 45 43 43 47 47 47 47 49 55 61 64
29 31 39 50 53 61 66 72 77 78 77 112 112 107 112 107 104 95 85 79 62 62 57 38 28 21 31 43 51 56 48 49 48 47 41 36 41 41 40 42 42 45 45 47
38 40 46 48 54 61 66 73 74 71 87 111 112 124 120 101 91 87 83 70 56 62 56 39 23 21 29 33 36 40 42 43 40 37 35 33 31 34 39 39 38 31 43 45
33 42 58 64 61 62 62 66 70 70 94 107 114 112 112 111 102 104 93 74 60 55 35 31 21 14 18 24 27 24 23 25 28 30 29 37 40 38 41 40 36 47 42 51
27 38 47 48 51 58 60 64 68 72 77 100 116 105 106 107 100 99 95 94 78 63 39 30 25 18 12 9 10 7 11 25 33 29 32 38 44 46 42 46 43 48 48 72
26 36 46 51 50 50 53 56 63 70 69 91 104 97 88 90 95 95 92 91 85 71 69 57 32 21 20 25 28 38 25 41 50 35 56 58 49 51 54 52 69 76 80 75
24 31 40 46 50 52 52 49 57 64 74 83 94 100 116 118 110 105 95 88 83 73 59 58 52 38 44 39 53 50 49 42 47 69 68 66 69 78 79 78 83 79 78 74
25 32 38 44 51 59 54 52 58 65 72 76 89 89 90 88 101 103 108 95 83 64 66 68 60 48 61 55 53 55 60 65 66 65 73 83 83 82 83 80 77 77 73 68
27 31 36 43 50 54 58 54 54 61 68 74 85 86 103 101 101 96 89 86 77 67 57 45 48 46 51 40 44 52 50 49 53 60 64 73 76 82 79 74 72 71 68 65
23 24 31 38 47 50 58 56 49 59 64 68 88 83 92 99 104 108 105 86 74 64 51 41 32 31 45 41 41 42 45 43 45 51 55 61 69 74 74 71 68 64 63 61
34 35 41 41 45 60 63 57 47 52 58 61 70 79 85 102 98 97 81 77 67 60 50 43 36 26 29 43 38 36 37 39 40 37 39 56 63 65 61 62 62 59 58 59
29 37 43 43 43 60 58 52 50 48 56 61 67 75 73 85 86 92 93 78 74 61 52 42 37 35 35 35 33 29 28 27 28 32 47 57 62 60 58 57 56 57 60 57
32 35 41 40 36 55 57 54 61 54 54 58 61 68 71 79 81 86 92 90 74 66 53 48 42 36 29 27 26 25 23 22 23 28 44 51 56 56 53 56 58 59 59 62
26 31 36 41 42 50 53 56 59 59 53 50 51 59 65 72 81 81 86 89 89 73 59 46 40 35 29 23 19 18 16 18 20 23 29 40 49 52 54 56 57 61 61 58
Wind_Direction_500mb
266 282 285 280 281 284 210 233 227 288 307 326 337 318 308 316 324 316 303 272 268 277 266 271 289 261 249 281 266 241 227 232 238 243 248 253 255 257 261 268 266 267 271 278
273 282 290 313 321 288 337 135 230 271 236 305 309 320 323 343 321 315 298 284 275 282 292 285 266 257 252 266 269 269 266 262 259 258 259 261 263 264 263 268 268 270 271 271
277 302 303 352 348 342 307 258 240 253 298 327 311 302 312 306 303 297 291 289 284 278 284 285 286 283 278 272 269 262 259 262 262 265 269 271 271 274 282 285 287 269 263 254
272 340 284 145 237 23 297 358 52 356 337 319 300 309 306 304 296 296 297 305 301 297 294 293 291 287 285 280 267 260 254 248 250 253 260 269 276 280 282 282 285 263 263 258
174 247 280 175 2 327 326 264 27 355 337 326 319 315 300 301 287 290 295 296 296 294 288 288 287 283 280 269 265 265 260 257 258 259 262 267 271 275 276 267 271 263 262 257
144 286 248 29 326 300 288 257 10 341 331 322 323 306 296 302 297 296 289 282 292 289 282 276 273 272 273 265 261 256 256 257 257 259 261 265 270 273 264 262 262 259 249 255
207 231 281 349 307 328 68 275 325 325 309 304 296 290 295 299 293 293 289 288 288 287 279 274 271 268 258 256 251 251 252 254 254 254 257 262 265 263 258 254 257 255 245 246
190 228 289 13 349 49 278 320 311 311 308 302 299 298 295 298 299 299 293 287 284 285 277 272 268 258 259 254 256 255 251 252 248 250 253 265 249 247 248 251 249 251 247 249
171 230 258 316 282 288 336 311 307 307 307 307 304 303 302 309 307 303 299 294 288 284 276 267 262 256 254 252 251 251 245 246 250 255 259 247 243 246 247 248 251 245 250 246
25 277 316 318 325 323 327 314 314 311 312 308 310 308 305 305 301 299 296 291 288 284 277 268 261 255 250 249 243 242 242 243 250 244 241 243 246 244 240 243 243 239 237 238
263 304 330 16 325 323 322 323 316 312 312 317 312 309 308 309 307 303 300 298 292 282 275 269 264 252 246 243 238 236 233 238 245 242 242 244 245 242 241 247 240 235 234 238
246 307 281 287 305 319 315 312 313 312 321 324 322 316 315 313 310 310 309 310 302 291 277 273 264 254 240 235 228 223 230 230 228 239 243 242 241 242 239 244 238 238 240 242
280 304 298 300 313 317 316 325 323 326 327 323 326 322 320 315 318 321 322 320 321 316 310 271 254 247 226 216 213 217 220 225 233 231 231 235 237 240 248 239 234 237 238 240
323 331 315 320 316 324 324 324 331 330 324 335 328 328 329 329 334 335 337 338 345 354 17 48 205 207 192 200 202 203 211 219 220 221 227 231 233 232 231 232 231 234 242 244
339 333 317 320 321 327 338 337 335 338 340 339 337 338 341 342 339 341 347 353 12 28 35 62 95 134 166 178 187 192 202 210 212 216 222 221 224 226 228 236 246 250 252 225
339 335 331 330 332 339 341 340 338 340 346 341 341 343 345 342 344 350 360 15 28 24 46 51 77 123 142 157 171 184 196 198 197 200 201 206 214 212 218 219 224 235 179 174
338 340 337 340 340 336 339 339 342 341 346 346 344 341 347 351 355 7 14 24 31 40 49 60 75 112 139 153 164 168 189 213 189 199 205 204 213 217 205 212 206 178 181 174
339 328 331 334 333 334 338 347 346 349 348 347 348 347 352 357 356 3 14 15 45 56 62 65 79 86 99 143 160 131 189 186 164 182 184 179 187 177 174 178 193 196 198 167
344 334 337 345 351 346 348 351 354 359 352 350 350 351 355 360 4 12 26 30 33 35 35 51 84 85 84 132 119 131 114 124 141 134 145 150 153 154 168 166 162 164 154 158
342 340 347 360 8 5 357 359 359 1 359 355 353 1 4 8 16 20 26 30 27 22 38 65 77 102 98 116 120 130 128 128 136 130 143 147 141 132 143 144 145 148 154 152
347 343 342 359 7 13 10 8 4 7 4 4 1 3 4 7 19 23 24 25 24 38 47 72 90 90 96 127 124 126 134 138 141 143 142 134 136 139 144 149 152 152 153 154
344 342 343 350 0 5 12 12 10 13 16 12 7 10 10 14 15 25 28 22 21 33 69 66 76 84 110 110 124 130 131 133 129 135 139 143 147 149 147 147 150 154 155 155
345 360 8 2 359 6 12 12 14 18 22 18 15 14 14 20 21 19 19 25 27 34 53 69 74 90 105 121 127 128 128 134 138 138 143 150 153 151 148 148 150 155 156 156
46 36 24 21 18 14 10 13 15 19 24 21 18 17 18 16 24 25 22 25 33 38 45 75 86 97 111 112 120 123 127 131 134 135 143 149 152 151 152 155 155 153 158 157
41 31 24 18 17 14 11 13 17 16 18 22 23 20 24 24 23 25 24 23 33 34 34 68 95 105 108 108 110 114 117 126 135 145 152 155 157 158 159 161 162 160 160 161
45 30 26 27 21 14 18 20 22 17 13 16 22 22 22 24 24 25 29 27 29 36 32 42 53 75 101 117 111 113 122 129 142 153 158 163 164 164 164 164 162 161 167 167
44 28 23 29 27 17 17 21 23 20 17 15 16 21 23 24 24 26 26 30 28 27 31 35 41 51 67 84 105 115 120 140 154 163 166 168 172 172 169 168 167 171 171 170
Wind_Speed_850mb
12 19 24 26 25 23 19 21 8 7 7 4 6 12 19 30 20 14 15 21 32 35 41 31 28 31 29 49 40 33 43 49 52 56 60 64 69 69 69 70 70 69 65 67
8 25 16 25 17 17 3 5 7 9 9 3 16 21 20 33 28 34 31 34 29 36 31 37 45 55 60 66 62 61 64 63 63 63 63 66 67 65 69 75 77 90 98 100
9 15 24 5 17 10 10 3 5 4 3 9 14 15 24 35 45 47 42 26 31 34 41 47 53 51 51 58 65 67 70 69 70 70 72 75 70 72 79 81 85 72 77 74
8 12 2 10 0 9 23 9 12 13 17 16 20 37 48 51 48 39 38 52 59 63 70 80 84 80 72 65 65 64 66 71 67 61 62 66 74 83 86 83 79 73 58 66
2 2 11 18 6 11 11 9 10 14 22 34 46 56 51 37 34 54 76 89 84 86 89 96 106 107 97 86 84 83 84 84 80 77 76 74 76 80 88 82 76 76 66 63
3 4 7 5 16 28 15 9 16 24 26 26 44 31 29 52 69 83 77 73 85 96 94 94 101 98 99 105 99 110 96 87 84 82 83 85 84 82 86 81 86 77 71 60
5 6 12 9 20 23 9 12 42 39 41 48 32 38 91 84 77 73 90 106 104 103 103 103 95 84 88 91 90 87 87 91 93 94 90 85 87 84 79 68 71 76 76 66
3 6 12 17 10 3 7 34 42 48 60 63 69 83 79 80 89 110 103 97 96 97 102 99 91 82 86 90 90 85 82 84 89 84 82 81 77 80 79 71 77 68 74 72
10 9 6 14 17 6 36 38 46 60 68 71 81 86 74 99 119 116 111 107 100 97 96 95 88 84 85 91 81 72 72 79 87 89 87 74 75 69 72 68 62 73 78 75
9 2 15 50 20 42 58 55 67 69 77 85 75 76 106 120 116 105 110 105 99 101 98 92 86 86 89 84 73 69 69 72 73 69 68 67 61 59 54 62 67 57 58 65
9 9 42 1 51 57 75 76 72 80 76 65 75 94 114 109 113 111 107 106 98 93 97 98 88 81 82 79 69 69 65 67 65 61 60 61 60 59 66 66 64 65 69 66
8 11 11 41 59 67 67 75 78 81 75 72 90 106 111 113 113 104 105 108 104 95 95 100 86 73 69 68 67 67 62 60 63 61 58 60 60 58 57 55 55 53 48 53
14 39 41 57 51 52 67 81 86 79 66 80 106 104 107 98 102 100 99 96 99 101 90 77 69 55 45 55 60 61 64 60 56 53 57 61 60 60 59 53 51 55 56 59
13 39 29 31 54 67 67 73 75 77 63 92 106 100 96 95 98 94 91 89 84 72 60 20 18 27 32 47 53 55 55 54 54 45 43 43 47 47 47 47 49 55 61 64
29 31 39 50 53 61 66 72 77 78 77 112 112 107 112 107 104 95 85 79 62 62 57 38 28 21 31 43 51 56 48 49 48 47 41 36 41 41 40 42 42 45 45 47
38 40 46 48 54 61 66 73 74 71 87 111 112 124 120 101 91 87 83 70 56 62 56 39 23 21 29 33 36 40 42 43 40 37 35 33 31 34 39 39 38 31 43 45
33 42 58 64 61 62 62 66 70 70 94 107 114 112 112 111 102 104 93 74 60 55 35 31 21 14 18 24 27 24 23 25 28 30 29 37 40 38 41 40 36 47 42 51
27 38 47 48 51 58 60 64 68 72 77 100 116 105 106 107 100 99 95 94 78 63 39 30 25 18 12 9 10 7 11 25 33 29 32 38 44 46 42 46 43 48 48 72
26 36 46 51 50 50 53 56 63 70 69 91 104 97 88 90 95 95 92 91 85 71 69 57 32 21 20 25 28 38 25 41 50 35 56 58 49 51 54 52 69 76 80 75
24 31 40 46 50 52 52 49 57 64 74 83 94 100 116 118 110 105 95 88 83 73 59 58 52 38 44 39 53 50 49 42 47 69 68 66 69 78 79 78 83 79 78 74
25 32 38 44 51 59 54 52 58 65 72 76 89 89 90 88 101 103 108 95 83 64 66 68 60 48 61 55 53 55 60 65 66 65 73 83 83 82 83 80 77 77 73 68
27 31 36 43 50 54 58 54 54 61 68 74 85 86 103 101 101 96 89 86 77 67 57 45 48 46 51 40 44 52 50 49 53 60 64 73 76 82 79 74 72 71 68 65
23 24 31 38 47 50 58 56 49 59 64 68 88 83 92 99 104 108 105 86 74 64 51 41 32 31 45 41 41 42 45 43 45 51 55 61 69 74 74 71 68 64 63 61
34 35 41 41 45 60 63 57 47 52 58 61 70 79 85 102 98 97 81 77 67 60 50 43 36 26 29 43 38 36 37 39 40 37 39 56 63 65 61 62 62 59 58 59
29 37 43 43 43 60 58 52 50 48 56 61 67 75 73 85 86 92 93 78 74 61 52 42 37 35 35 35 33 29 28 27 28 32 47 57 62 60 58 57 56 57 60 57
32 35 41 40 36 55 57 54 61 54 54 58 61 68 71 79 81 86 92 90 74 66 53 48 42 36 29 27 26 25 23 22 23 28 44 51 56 56 53 56 58 59 59 62
26 31 36 41 42 50 53 56 59 59 53 50 51 59 65 72 81 81 86 89 89 73 59 46 40 35 29 23 19 18 16 18 20 23 29 40 49 52 54 56 57 61 61 58
Wind_Direction_850mb
266 282 285 280 281 284 210 233 227 288 307 326 337 318 308 316 324 316 303 272 268 277 266 271 289 261 249 281 266 241 227 232 238 243 248 253 255 257 261 268 266 267 271 278
273 282 290 313 321 288 337 135 230 271 236 305 309 320 323 343 321 315 298 284 275 282 292 285 266 257 252 266 269 269 266 262 259 258 259 261 263 264 263 268 268 270 271 271
277 302 303 352 348 342 307 258 240 253 298 327 311 302 312 306 303 297 291 289 284 278 284 285 286 283 278 272 269 262 259 262 262 265 269 271 271 274 282 285 287 269 263 254
272 340 284 145 237 23 297 358 52 356 337 319 300 309 306 304 296 296 297 305 301 297 294 293 291 287 285 280 267 260 254 248 250 253 260 269 276 280 282 282 285 263 263 258
174 247 280 175 2 327 326 264 27 355 337 326 319 315 300 301 287 290 295 296 296 294 288 288 287 283 280 269 265 265 260 257 258 259 262 267 271 275 276 267 271 263 262 257
144 286 248 29 326 300 288 257 10 341 331 322 323 306 296 302 297 296 289 282 292 289 282 276 273 272 273 265 261 256 256 257 257 259 261 265 270 273 264 262 262 259 249 255
207 231 281 349 307 328 68 275 325 325 309 304 296 290 295 299 293 293 289 288 288 287 279 274 271 268 258 256 251 251 252 254 254 254 257 262 265 263 258 254 257 255 245 246
190 228 289 13 349 49 278 320 311 311 308 302 299 298 295 298 299 299 293 287 284 285 277 272 268 258 259 254 256 255 251 252 248 250 253 265 249 247 248 251 249 251 247 249
171 230 258 316 282 288 336 311 307 307 307 307 304 303 302 309 307 303 299 294 288 284 276 267 262 256 254 252 251 251 245 246 250 255 259 247 243 246 247 248 251 245 250 246
25 277 316 318 325 323 327 314 314 311 312 308 310 308 305 305 301 299 296 291 288 284 277 268 261 255 250 249 243 242 242 243 250 244 241 243 246 244 240 243 243 239 237 238
263 304 330 16 325 323 322 323 316 312 312 317 312 309 308 309 307 303 300 298 292 282 275 269 264 252 246 243 238 236 233 238 245 242 242 244 245 242 241 247 240 235 234 238
246 307 281 287 305 319 315 312 313 312 321 324 322 316 315 313 310 310 309 310 302 291 277 273 264 254 240 235 228 223 230 230 228 239 243 242 241 242 239 244 238 238 240 242
280 304 298 300 313 317 316 325 323 326 327 323 326 322 320 315 318 321 322 320 321 316 310 271 254 247 226 216 213 217 220 225 233 231 231 235 237 240 248 239 234 237 238 240
323 331 315 320 316 324 324 324 331 330 324 335 328 328 329 329 334 335 337 338 345 354 17 48 205 207 192 200 202 203 211 219 220 221 227 231 233 232 231 232 231 234 242 244
339 333 317 320 321 327 338 337 335 338 340 339 337 338 341 342 339 341 347 353 12 28 35 62 95 134 166 178 187 192 202 210 212 216 222 221 224 226 228 236 246 250 252 225
339 335 331 330 332 339 341 340 338 340 346 341 341 343 345 342 344 350 360 15 28 24 46 51 77 123 142 157 171 184 196 198 197 200 201 206 214 212 218 219 224 235 179 174
338 340 337 340 340 336 339 339 342 341 346 346 344 341 347 351 355 7 14 24 31 40 49 60 75 112 139 153 164 168 189 213 189 199 205 204 213 217 205 212 206 178 181 174
339 328 331 334 333 334 338 347 346 349 348 347 348 347 352 357 356 3 14 15 45 56 62 65 79 86 99 143 160 131 189 186 164 182 184 179 187 177 174 178 193 196 198 167
344 334 337 345 351 346 348 351 354 359 352 350 350 351 355 360 4 12 26 30 33 35 35 51 84 85 84 132 119 131 114 124 141 134 145 150 153 154 168 166 162 164 154 158
342 340 347 360 8 5 357 359 359 1 359 355 353 1 4 8 16 20 26 30 27 22 38 65 77 102 98 116 120 130 128 128 136 130 143 147 141 132 143 144 145 148 154 152
347 343 342 359 7 13 10 8 4 7 4 4 1 3 4 7 19 23 24 25 24 38 47 72 90 90 96 127 124 126 134 138 141 143 142 134 136 139 144 149 152 152 153 154
344 342 343 350 0 5 12 12 10 13 16 12 7 10 10 14 15 25 28 22 21 33 69 66 76 84 110 110 124 130 131 133 129 135 139 143 147 149 147 147 150 154 155 155
345 360 8 2 359 6 12 12 14 18 22 18 15 14 14 20 21 19 19 25 27 34 53 69 74 90 105 121 127 128 128 134 138 138 143 150 153 151 148 148 150 155 156 156
46 36 24 21 18 14 10 13 15 19 24 21 18 17 18 16 24 25 22 25 33 38 45 75 86 97 111 112 120 123 127 131 134 135 143 149 152 151 152 155 155 153 158 157
41 31 24 18 17 14 11 13 17 16 18 22 23 20 24 24 23 25 24 23 33 34 34 68 95 105 108 108 110 114 117 126 135 145 152 155 157 158 159 161 162 160 160 161
45 30 26 27 21 14 18 20 22 17 13 16 22 22 22 24 24 25 29 27 29 36 32 42 53 75 101 117 111 113 122 129 142 153 158 163 164 164 164 164 162 161 167 167
44 28 23 29 27 17 17 21 23 20 17 15 16 21 23 24 24 26 26 30 28 27 31 35 41 51 67 84 105 115 120 140 154 163 166 168 172 172 169 168 167 171 171 170